{"data":{"norad_id":47366,"intl_designator":"2021-005T","name":"STARLINK-2081","alt_names":[],"object_type":"PAYLOAD","status":"ACTIVE","operator":null,"country":"US","launch_date":"2021-01-20","launch_site_code":"AFETR","launch_vehicle":null,"mission":null,"orbit_class":"UNKNOWN","rcs_meters":null,"size_class":null,"mass_kg":null,"dimensions":null,"purposes":["comms"],"wikipedia_slug":null,"has_3d_model":false,"image_url":null,"decayed_at":null,"tle_current":{"epoch":"2026-05-25T01:41:22.153920Z","epoch_age_seconds":83046,"freshness":"FRESH","line1":"1 47366U 21005T   26145.07039530  .00004647  00000+0  16134-3 0  9997","line2":"2 47366  53.1603  67.3470 0001219  91.8067 268.3074 15.31715952294720","mean_motion":15.31715952,"eccentricity":0.0001219,"inclination_deg":53.1603,"raan_deg":67.347,"arg_perigee_deg":91.8067,"mean_anomaly_deg":268.3074,"bstar":0.00016134,"rev_number":29472,"period_min":94.012208864167,"perigee_km":469.85757124724,"apogee_km":471.52731586558,"semimajor_km":6848.8294435564,"source":"CELESTRAK","updated_at":"2026-05-25T13:38:16.525949Z"}}}